This is the latest recevied weather packets stored in our database for station/object W4OTS. If no packets are shown the sender has not sent any weather packets the latest 10 day(s).
| Time | Temp. | Humidity | Pressure | Rain* | Wind** | Luminosity | Snow |
|---|---|---|---|---|---|---|---|
| 1778112356 | 19.44° C | 99% | 1015 hPa | 1.78 mm | - | 0 W/m² | - |
| 1778112052 | 19.44° C | 99% | 1015 hPa | 0 mm | - | 0 W/m² | - |
| 1778111750 | 19.44° C | 99% | 1014.7 hPa | 0 mm | - | 0 W/m² | - |
| 1778111445 | 19.44° C | 99% | 1014.6 hPa | 0 mm | - | 0 W/m² | - |
| 1778111143 | 19.44° C | 99% | 1014.6 hPa | 0 mm | - | 3 W/m² | - |
| 1778110839 | 19.44° C | 99% | 1014.5 hPa | 0 mm | - | 4 W/m² | - |
| 1778110536 | 20° C | 99% | 1013.9 hPa | 0 mm | - | 5 W/m² | - |
| 1778110233 | 20° C | 99% | 1013.9 hPa | 0 mm | - | 5 W/m² | - |
| 1778109929 | 20° C | 99% | 1014 hPa | 0 mm | - | 9 W/m² | - |
| 1778109625 | 20° C | 98% | 1013.8 hPa | 0 mm | - | 10 W/m² | - |
| 1778109323 | 20° C | 97% | 1013.9 hPa | 1.27 mm | - | 11 W/m² | - |
| 1778109021 | 20° C | 97% | 1014.1 hPa | 3.05 mm | - | 17 W/m² | - |
| 1778108716 | 20.56° C | 96% | 1014.1 hPa | 1.78 mm | - | 17 W/m² | - |
| 1778108414 | 20.56° C | 96% | 1014.1 hPa | 0 mm | - | 5 W/m² | - |
| 1778108110 | 20.56° C | 96% | 1014.5 hPa | 0 mm | - | 4 W/m² | - |
| 1778107807 | 20.56° C | 95% | 1014.9 hPa | 1.27 mm | - | 9 W/m² | - |
| 1778107503 | 20.56° C | 94% | 1014.2 hPa | 1.27 mm | - | 18 W/m² | - |
| 1778107195 | 21.11° C | 94% | 1014.4 hPa | 0 mm | - | 32 W/m² | - |
| 1778106891 | 21.11° C | 94% | 1014.2 hPa | 0 mm | - | 29 W/m² | - |
| 1778106588 | 21.11° C | 92% | 1014.3 hPa | 0 mm | - | 25 W/m² | - |
| 1778106284 | 21.67° C | 90% | 1014.1 hPa | 0 mm | - | 19 W/m² | - |
| 1778105981 | 21.67° C | 89% | 1014.1 hPa | 0 mm | - | 24 W/m² | - |
| 1778105678 | 21.67° C | 87% | 1014.5 hPa | 0 mm | - | 27 W/m² | - |
| 1778105376 | 21.67° C | 87% | 1014.3 hPa | 0 mm | - | 28 W/m² | - |
| 1778105071 | 21.67° C | 87% | 1014.5 hPa | 0 mm | - | 28 W/m² | - |
* Rain latest hour (hover to see other rain measurements)
** Current wind speed in m/s (hover to see current wind gust speed)